Retour au catalogue

FENGYUN 1C DEB

ActifPO
NORAD 31813·DEBRIS·🇨🇳 China

Lancé May 10, 1999 depuis Taiyuan Satellite Launch Center

Loading…

Prochains Passages (prochaines 24 heures)

TLE

FraisSource: Space-Track

Époque: Sep 14, 2026, 06:42 UTC

1 31813U 99025CHB 26257.27941722  .00001516  00000-0  35667-3 0  9990
2 31813  99.4295  14.4191 0133969 237.1052 121.7191 14.50866192 12442

Suivez FENGYUN 1C DEB en temps réel avec AllMySat

Download on the App Store